BEIDOU-3 M6 (C24)

Last updated on Wed Aug 26 2026 00:04:16 GMT+0000 (Coordinated Universal Time)

1 43582U 18062B 26237.23808660 -.00000007 00000+0 00000+0 0 9998 2 43582 54.0846 179.9470 0006020 23.3850 336.6107 1.86228147 54922
UTC large
Height (km)
Speed (km/s)
/
Latitude / Longitude
Inclination (degrees)
Orbital Period (minutes)
Azimuth
Elevation
Range (km)
Doppler Factor

Next 0 passes for location: London (51.5072 / 0.1276)

No passes found over London.
BEIDOU-3 M6 (C24)